Weather History for Fairmont, MN

Change the Weather History Date:

Wednesday, May 29, 2013

  Actual Average Record
Temperature  
Mean Temperature 62 °F -  
Max Temperature 73 °F 73 °F 90 °F (1979)
Min Temperature 51 °F 54 °F 39 °F (1965)
Degree Days  
Heating Degree Days 3    
Growing Degree Days 12 (Base 50)    
Moisture  
Dew Point 60 °F    
Average Humidity 84    
Maximum Humidity 94    
Minimum Humidity 69    
Precipitation  
Precipitation 0.40 in - - ()
Sea Level Pressure  
Sea Level Pressure 29.71 in    
Wind  
Wind Speed 8 mph (SE)    
Max Wind Speed 23 mph    
Max Gust Speed 31 mph    
Visibility 7 miles    
Events Thunderstorm    
Averages and records for this station are not official NWS values.
T = Trace of Precipitation, MM = Missing Value Source: NWS Daily Summary

Daily Weather History Graph

Daily Weather History Graph

Search for Another Location

Airport:

Trip Planner

Search our weather history database for the weather conditions in past years. The results will help you decide how hot, cold, wet, or windy it might be!

Date:

Astronomy

May. 29, 2013 Rise Set
Actual Time 5:40 AM CDT 8:50 PM CDT
Civil Twilight 5:05 AM CDT 9:24 PM CDT
Nautical Twilight 4:21 AM CDT 10:09 PM CDT
Astronomical Twilight 3:27 AM CDT 11:04 PM CDT
Moon 12:08 AM CDT (5/29) 10:46 AM CDT (5/29)
Length of Visible Light 16h 19m
Length of Day
15h 09m
Waning Gibbous, 73% of the Moon is Illuminated
May 29
Waning Gibbous
May 31
Last Quarter
Jun 8
New
Jun 16
First Quarter
Jun 23
Full

Hourly Weather History & Observations

Time (CDT) Temp. Dew Point Humidity Pressure Visibility Wind Dir Wind Speed Gust Speed Precip Events Conditions
12:15 AM 55.4 °F 51.8 °F 88% 29.79 in 0.2 mi Calm Calm - N/A   Unknown
12:35 AM 55.4 °F 51.8 °F 88% 29.79 in 0.2 mi Calm Calm - N/A   Mostly Cloudy
12:55 AM 53.6 °F 51.8 °F 94% 29.78 in 0.5 mi Calm Calm - N/A   Mostly Cloudy
1:15 AM 51.8 °F 50.0 °F 94% 29.78 in 0.5 mi Calm Calm - N/A   Overcast
1:35 AM 53.6 °F 51.8 °F 94% 29.77 in 1.2 mi Calm Calm - N/A   Overcast
1:55 AM 55.4 °F 51.8 °F 88% 29.78 in 3.0 mi Calm Calm - N/A   Overcast
2:15 AM 55.4 °F 53.6 °F 94% 29.78 in 4.0 mi SSE 4.6 mph - N/A   Overcast
2:35 AM 55.4 °F 53.6 °F 94% 29.76 in 2.5 mi NNE 5.8 mph - N/A   Overcast
2:55 AM 57.2 °F 53.6 °F 88% 29.77 in 2.0 mi East 4.6 mph - N/A   Overcast
3:15 AM 57.2 °F 53.6 °F 88% 29.78 in 3.0 mi ESE 5.8 mph - N/A   Overcast
3:35 AM 57.2 °F 55.4 °F 94% 29.76 in 4.0 mi East 4.6 mph - N/A   Overcast
3:55 AM 57.2 °F 55.4 °F 94% 29.76 in 4.0 mi East 4.6 mph - N/A   Overcast
4:15 AM 57.2 °F 55.4 °F 94% 29.77 in 3.0 mi SE 3.5 mph - N/A   Overcast
4:35 AM 57.2 °F 55.4 °F 94% 29.76 in 3.0 mi East 5.8 mph - N/A   Overcast
4:55 AM 59.0 °F 55.4 °F 88% 29.79 in 4.0 mi SSE 5.8 mph - N/A   Overcast
5:15 AM 59.0 °F 55.4 °F 88% 29.78 in 4.0 mi East 5.8 mph - N/A   Overcast
5:35 AM 57.2 °F 55.4 °F 94% 29.78 in 5.0 mi ESE 9.2 mph - N/A   Overcast
5:55 AM 57.2 °F 55.4 °F 94% 29.78 in 4.0 mi ESE 10.4 mph - N/A   Overcast
6:15 AM 57.2 °F 55.4 °F 94% 29.79 in 3.0 mi SE 11.5 mph - N/A   Mostly Cloudy
6:35 AM 59.0 °F 55.4 °F 88% 29.78 in 5.0 mi ESE 12.7 mph - N/A   Overcast
6:55 AM 59.0 °F 55.4 °F 88% 29.77 in 0.2 mi ESE 11.5 mph - N/A   Overcast
7:15 AM 59.0 °F 55.4 °F 88% 29.77 in 0.2 mi ESE 12.7 mph - N/A   Overcast
7:35 AM 59.0 °F 57.2 °F 94% 29.76 in 0.2 mi ESE 9.2 mph - N/A   Overcast
7:55 AM 60.8 °F 57.2 °F 88% 29.77 in 0.5 mi ESE 9.2 mph - N/A   Overcast
8:15 AM 62.6 °F 59.0 °F 88% 29.76 in 3.0 mi SE 10.4 mph - N/A   Overcast
8:35 AM 62.6 °F 60.8 °F 94% 29.77 in 5.0 mi SE 9.2 mph - N/A   Overcast
8:55 AM 64.4 °F 60.8 °F 88% 29.76 in 7.0 mi SE 11.5 mph - N/A   Mostly Cloudy
9:15 AM 66.2 °F 62.6 °F 88% 29.75 in 8.0 mi ESE 12.7 mph - N/A   Mostly Cloudy
9:35 AM 68.0 °F 62.6 °F 83% 29.74 in 10.0 mi SSE 12.7 mph - N/A   Mostly Cloudy
9:55 AM 69.8 °F 62.6 °F 78% 29.74 in 10.0 mi SSE 13.8 mph - N/A   Mostly Cloudy
10:15 AM 69.8 °F 62.6 °F 78% 29.73 in 10.0 mi SSE 13.8 mph - N/A   Overcast
10:35 AM 71.6 °F 62.6 °F 73% 29.72 in 10.0 mi SSE 16.1 mph 21.9 mph N/A   Overcast
10:55 AM 71.6 °F 62.6 °F 73% 29.72 in 10.0 mi SSE 17.3 mph - N/A   Overcast
11:15 AM 71.6 °F 62.6 °F 73% 29.73 in 10.0 mi SSE 16.1 mph - N/A   Overcast
11:35 AM 71.6 °F 64.4 °F 78% 29.72 in 10.0 mi South 17.3 mph - N/A   Overcast
11:55 AM 71.6 °F 64.4 °F 78% 29.71 in 10.0 mi SSE 13.8 mph - N/A   Overcast
12:15 PM 71.6 °F 64.4 °F 78% 29.72 in 10.0 mi SSE 15.0 mph - N/A   Overcast
12:35 PM 71.6 °F 64.4 °F 78% 29.73 in 10.0 mi South 13.8 mph - N/A   Overcast
12:55 PM 73.4 °F 64.4 °F 73% 29.73 in 10.0 mi SSE 13.8 mph - N/A   Overcast
1:15 PM 71.6 °F 64.4 °F 78% 29.73 in 10.0 mi SSE 21.9 mph 31.1 mph N/A   Overcast
1:35 PM 62.6 °F 57.2 °F 82% 29.71 in 4.0 mi SE 11.5 mph - 0.26 in Thunderstorm Thunderstorm
1:55 PM 64.4 °F 60.8 °F 88% 29.70 in 10.0 mi SE 8.1 mph - 0.26 in   Mostly Cloudy
2:15 PM 66.2 °F 62.6 °F 88% 29.70 in 10.0 mi SE 6.9 mph - N/A   Scattered Clouds
2:35 PM 68.0 °F 62.6 °F 83% 29.69 in 10.0 mi SSE 9.2 mph - N/A   Scattered Clouds
2:55 PM 71.6 °F 66.2 °F 83% 29.70 in 10.0 mi SSE 19.6 mph 24.2 mph N/A   Scattered Clouds
3:15 PM 71.6 °F 64.4 °F 78% 29.69 in 10.0 mi SSE 23.0 mph 28.8 mph N/A   Mostly Cloudy
3:35 PM 71.6 °F 64.4 °F 78% 29.67 in 10.0 mi SSE 16.1 mph 21.9 mph N/A   Scattered Clouds
3:55 PM 73.4 °F 66.2 °F 78% 29.66 in 10.0 mi SSE 15.0 mph - N/A   Partly Cloudy
4:15 PM 73.4 °F 66.2 °F 78% 29.64 in 10.0 mi SSE 13.8 mph - N/A   Clear
4:35 PM 73.4 °F 66.2 °F 78% 29.65 in 10.0 mi South 19.6 mph 23.0 mph N/A   Clear
4:55 PM 73.4 °F 64.4 °F 73% 29.65 in - South 19.6 mph 25.3 mph N/A   Partly Cloudy
5:15 PM 73.4 °F 66.2 °F 78% 29.64 in 10.0 mi SSE 18.4 mph - N/A   Scattered Clouds
5:35 PM 73.4 °F 64.4 °F 73% 29.64 in 10.0 mi South 17.3 mph - N/A   Partly Cloudy
5:55 PM 73.4 °F 62.6 °F 69% 29.64 in 10.0 mi South 19.6 mph - N/A   Clear
6:15 PM 73.4 °F 62.6 °F 69% 29.63 in 10.0 mi SSE 18.4 mph - N/A   Clear
6:35 PM 71.6 °F 64.4 °F 78% 29.63 in 10.0 mi SSE 17.3 mph - N/A   Clear
6:55 PM 71.6 °F 64.4 °F 78% 29.63 in 10.0 mi SE 16.1 mph 21.9 mph N/A   Clear
7:15 PM 69.8 °F 62.6 °F 78% 29.63 in 10.0 mi SE 15.0 mph - N/A   Mostly Cloudy
7:35 PM 69.8 °F 62.6 °F 78% 29.64 in 10.0 mi SE 16.1 mph - N/A   Mostly Cloudy
7:55 PM 69.8 °F 62.6 °F 78% 29.64 in 10.0 mi SE 13.8 mph - N/A   Mostly Cloudy
8:15 PM 68.0 °F 62.6 °F 83% 29.64 in 10.0 mi SE 13.8 mph - N/A   Mostly Cloudy
8:35 PM 66.2 °F 60.8 °F 83% 29.64 in 10.0 mi SE 11.5 mph - N/A   Mostly Cloudy
8:55 PM 66.2 °F 60.8 °F 83% 29.65 in 10.0 mi SE 11.5 mph - N/A   Mostly Cloudy
9:15 PM 66.2 °F 60.8 °F 83% 29.65 in 10.0 mi SE 13.8 mph - N/A   Overcast
9:35 PM 66.2 °F 60.8 °F 83% 29.65 in 10.0 mi SE 15.0 mph - N/A   Overcast
9:55 PM 66.2 °F 60.8 °F 83% 29.66 in 10.0 mi SE 13.8 mph 20.7 mph N/A   Mostly Cloudy
10:15 PM 66.2 °F 60.8 °F 83% 29.66 in 10.0 mi SE 11.5 mph - N/A Thunderstorm Mostly Cloudy
10:35 PM 64.4 °F 60.8 °F 88% 29.66 in 10.0 mi SE 11.5 mph - 0.07 in Thunderstorm Thunderstorm
10:55 PM 64.4 °F 60.8 °F 88% 29.66 in 10.0 mi SSE 13.8 mph 17.3 mph 0.07 in   Overcast
11:15 PM 64.4 °F 60.8 °F 88% 29.65 in 10.0 mi SE 15.0 mph - 0.01 in   Overcast
11:35 PM 66.2 °F 60.8 °F 83% 29.64 in 10.0 mi South 13.8 mph - 0.03 in   Overcast
11:55 PM 66.2 °F 60.8 °F 83% 29.64 in 10.0 mi SSE 15.0 mph - 0.07 in   Overcast